CZ-6A DEB

Satellite information

Favourite Embed

Satellite Type and Status

DEBRISIN ORBIT

Key statistics

Satellite CZ-6A DEB at a glance.

Uptime

1129

Days in orbit

Revolutions

≈ 14.5

Per day

Orbit

SSO

Sun Synchronous Orbit

Inclination

98.6

Latest

Satellite identification and parameters

Extended collection of information and parameters for CZ-6A DEB.

Object identification

Identified? True

Debris? True

Object name: CZ-6A DEB

International designator: 2022-151WE

Object number (NORAD): 55213

Object ID (CCSDS): 55213

Country: PEOPLES REPUBLIC OF CHINA (PRC)

Current information (Y/N): Y

RCS size: SMALL

Orbital parameters

Period: 99.007 minutes

Inclination: 98.6349 deg

SMA: 7089.326 km

Apoapsis: 777.444 km

Periapsis: 644.938 km

RAAN: 26.7188 deg

Eccentricy: 0.00934545

Argument of periapsis: 174.8885 deg

Mean anomaly: 185.3287 deg

Mean motion: 14.54438466 rev/day

Mean motion (dot): 0.0000894 rev/day2

B* drag term: 0.0019915684 1/REarth

Two-line elements (TLE)

Creation date: Dec. 10, 2025, 10:40 a.m.

Reference frame: TEME

Reference center: EARTH

Epoch: Dec. 10, 2025, 1:17 a.m. UTC

TLE line 0: 0 CZ-6A DEB

TLE line 1: 1 55213U 22151WE 25344.05395830 .00008940 00000-0 19916-2 0 9997

TLE line 2: 2 55213 98.6349 26.7188 0093454 174.8885 185.3287 14.54438466156613

Live tracking on map

Real-time ground track for satellite CZ-6A DEB.

In-orbit conjunctions

A list of the most updated potential collisions computed for object CZ-6A DEB.

Target Orbit TCA Probability of collision Miss distance Type
IRIDIUM 44 LEO 2025-11-04 06:47:06 0.000155323 326.0 (m) PAYLOAD
SOICAL (CONE) LEO 2025-06-14 23:46:24 0.0003839959 233.0 (m) PAYLOAD
CZ-6A DEB LEO 2025-01-09 15:19:29 0.0004492267 247.0 (m) DEBRIS

Associated space launch

Chinese satellite reported for atmospheric/ocean/environmental/spatial parameter research purposes, details TBD.

CZ-6A DEB was lifted into orbit during the mission ‘Long March 6A | Yunhai 3’, on board a Long March 6A space rocket.

The launch took place on Nov. 11, 2022, 10:52 p.m. from Launch Complex 9A.

For more information about the launch, click the button.

Launch to space Long March 6A | Yunhai 3
Long March 6A | Yunhai 3

Agency: N/A

Status: Launch Successful

Launch date: Nov. 11, 2022, 10:52 p.m. UTC

Rocket: Long March 6A

Launch pad: Launch Complex 9A

Location: Taiyuan Satellite Launch Center, People's Republic of China

...

Latest news about this satellite

There are no fresh news available about this satellite. Check back as we update our databases every day.


Newsletter sign-up

Weekly statistics, charts and insights to help you stay on top of the space industry.